RADUGA 26 [-]

Last updated on Jan. 18, 2020, 4:38 a.m. UTC

1 21016U 90112A   20017.52690932  .00000061  00000-0  00000-0 0  9996
2 21016  14.7490 356.5936 0007283  25.2728 337.6535  1.00261733106776
UTC
Height (km)
Latitude
Longitude
Inclination
Orbital Period
UTC large
Height (km)
Speed (km/s)
/
Latitude / Longitude
Inclination (degrees)
Orbital Period (minutes)
Azimuth
Elevation
Range (km)
Doppler Factor
iOS Compass Heading
iOS Angle

Next 30 passes for location: Hong Kong

Rise time Rise Azimuth (degrees) Set time Set Azimuth (degrees) Duration Max altitude (degrees)

No matching passes for this satellites